Wind_Speed
15 19 21 24 26 28 28 29 32 35 38 39 39 40 41 42 44 44 44 47 48 49 49 50 50 50 51 51 51 50 50 49 48 48 47 44 43 42 42 41 42 42 42
14 17 21 23 25 27 28 29 30 32 34 37 39 40 42 43 44 44 45 46 47 47 49 50 51 51 52 52 52 51 50 49 48 47 45 45 45 44 43 43 43 43 43
12 14 18 21 24 26 27 29 30 31 34 35 38 41 42 44 45 45 45 46 48 49 50 50 51 52 51 51 51 51 49 48 48 46 45 45 45 45 45 44 43 43 43
14 16 19 21 24 26 28 30 32 33 35 38 39 41 43 45 47 48 49 49 50 50 51 52 52 53 52 51 50 49 48 48 48 47 46 46 46 45 44 43 43 43 43
17 20 22 24 26 29 31 33 35 37 39 40 41 42 44 45 47 49 51 51 51 52 52 52 52 52 51 50 49 49 49 48 48 47 47 46 45 44 43 43 43 44 44
22 24 26 28 31 33 35 37 39 41 43 44 45 45 46 47 48 50 50 50 50 51 50 51 50 50 50 50 50 50 49 49 49 48 48 46 45 45 44 44 44 45 45
27 29 31 34 36 38 40 42 43 45 46 48 49 50 51 51 51 52 53 53 52 51 51 51 51 51 51 51 50 49 49 49 48 49 48 48 47 46 45 45 45 45 45
33 35 37 39 40 43 45 46 47 48 49 50 50 52 53 54 54 55 56 56 55 54 54 53 53 53 53 53 52 52 51 51 50 50 49 50 49 48 47 47 46 46 45
38 40 42 43 45 47 49 50 51 52 53 54 55 56 56 57 57 57 56 56 57 56 56 56 56 55 56 56 55 54 54 53 53 53 52 50 50 49 48 48 46 45 44
42 44 46 47 49 50 52 53 54 55 56 57 58 59 59 58 58 59 57 57 58 58 58 58 58 58 58 58 57 56 56 55 54 53 52 51 50 49 48 47 46 44 44
45 48 50 51 53 54 55 56 57 58 59 60 59 59 60 60 59 60 60 60 59 59 59 60 60 59 59 58 58 57 56 55 54 53 52 51 50 49 47 46 45 44 43
49 51 53 55 56 58 59 60 60 61 61 61 61 61 61 61 60 60 61 61 61 61 60 60 61 61 61 60 59 58 57 56 55 53 52 50 49 47 46 45 44 43 42
53 54 56 58 58 59 61 62 62 63 63 62 61 60 59 59 60 60 60 61 62 62 61 60 60 60 60 59 58 57 56 55 54 52 50 49 48 47 45 44 44 42 41
55 57 58 59 60 60 60 61 61 61 61 60 60 59 58 57 58 58 59 60 60 61 61 61 60 58 58 57 56 56 55 54 52 51 50 49 48 46 45 44 42 41 40
57 58 58 58 58 58 58 58 58 58 58 57 56 56 55 55 55 56 57 58 58 58 58 58 59 58 57 56 55 54 54 53 52 51 51 49 48 47 45 43 42 40 39
57 56 55 55 55 55 55 55 55 54 54 53 52 52 52 52 52 53 55 55 56 56 56 56 57 56 56 55 54 53 53 52 51 50 50 49 47 45 44 43 42 40 38
55 54 54 54 54 53 53 52 51 50 50 50 48 48 48 48 49 50 51 52 53 54 54 54 55 55 54 54 54 53 52 51 50 49 49 47 46 45 44 43 41 40 39
54 53 53 53 52 50 49 48 46 44 44 44 45 44 43 44 45 46 48 49 50 51 52 52 52 52 52 52 52 51 51 50 49 48 47 46 45 44 43 42 41 39 38
52 52 51 50 48 47 45 43 42 41 40 39 40 41 40 40 41 42 43 44 46 48 48 49 49 49 50 49 49 49 49 48 48 47 46 44 43 42 42 41 39 38 36
50 49 48 47 45 44 42 40 38 37 36 35 35 36 36 36 36 38 39 40 41 43 45 46 46 46 47 47 46 46 46 46 45 44 43 42 41 40 39 38 37 37 36
48 47 46 45 43 41 38 37 35 34 32 32 31 31 31 31 32 33 35 35 37 38 40 42 42 43 45 45 44 44 44 44 43 42 40 39 39 38 38 37 36 36 35
47 46 45 43 41 38 36 34 32 30 29 28 27 27 27 27 27 29 30 32 33 35 36 38 39 40 41 42 42 42 42 41 40 40 39 38 37 37 37 36 35 35 34
46 45 43 41 38 36 33 31 29 27 25 24 23 23 23 24 24 25 27 29 30 32 34 36 37 37 38 39 40 40 39 39 38 38 38 37 37 36 36 35 34 34 34
45 43 41 39 36 33 30 28 26 24 22 20 20 20 20 21 21 22 24 26 28 30 31 33 35 35 36 36 37 37 36 36 36 36 37 36 36 35 34 34 34 34 34
43 41 38 36 33 30 28 25 23 21 20 19 18 18 18 18 19 20 22 23 25 27 29 30 32 34 33 33 34 34 34 34 34 34 35 35 34 34 33 33 33 33 33
41 38 36 33 31 28 25 23 21 20 18 17 16 16 16 16 17 18 20 21 23 25 26 27 30 31 32 31 31 32 32 33 33 33 33 33 33 33 33 33 32 32 32
Wind_Direction
232 234 235 236 237 240 241 242 242 243 243 245 246 247 247 248 249 250 251 252 252 253 255 257 258 259 260 260 262 262 264 265 265 266 266 265 264 266 269 271 274 276 278
239 239 239 240 241 245 245 247 248 246 247 248 248 249 250 250 251 251 253 254 254 254 256 258 258 259 260 260 260 260 261 263 263 264 263 263 264 266 268 271 273 276 278
250 249 248 249 250 251 252 253 253 253 252 252 252 251 252 253 253 253 254 254 255 256 256 257 258 259 260 260 260 260 260 260 261 261 261 262 263 265 268 270 273 275 277
265 263 258 256 255 254 255 258 258 257 257 256 256 256 257 257 257 257 258 257 257 257 257 258 258 258 258 258 258 257 256 257 257 257 258 261 263 264 266 269 272 274 277
275 273 269 266 265 263 261 261 262 261 261 260 260 260 260 260 260 259 259 258 257 258 258 257 256 255 255 255 253 254 254 254 256 257 259 261 262 264 266 269 272 275 277
282 279 276 273 272 270 268 266 265 264 262 261 261 261 261 261 260 258 257 256 257 257 255 255 254 253 253 252 252 253 254 255 257 258 259 260 261 264 266 268 271 274 276
285 282 279 276 274 272 271 269 267 266 265 263 262 262 262 261 260 260 258 257 256 255 255 255 254 252 251 250 250 251 253 255 256 257 259 260 262 263 265 267 270 272 275
285 284 282 280 276 275 274 271 269 268 266 265 264 263 263 262 261 259 258 257 255 255 254 252 251 251 251 250 251 252 253 254 256 257 258 260 261 263 264 266 269 271 274
287 286 284 281 279 277 276 273 271 269 268 267 265 265 263 262 261 260 259 257 255 254 252 251 250 250 251 250 251 252 253 253 255 256 257 259 260 262 264 266 267 269 271
290 288 287 285 282 280 277 275 273 272 270 268 267 266 264 263 261 260 259 257 254 253 252 250 249 249 249 250 251 251 252 253 255 256 257 258 260 261 263 264 266 267 268
293 291 288 287 285 282 280 277 275 274 272 269 268 267 266 264 262 260 258 256 254 253 251 251 250 249 249 249 249 250 251 252 253 255 256 257 259 260 261 262 264 265 267
295 294 291 289 286 284 282 279 277 275 273 271 269 268 266 264 262 260 258 256 254 253 252 251 250 249 249 250 251 251 252 252 252 253 254 256 257 258 259 261 262 263 264
298 296 294 291 289 287 285 282 280 278 275 272 271 269 266 264 261 259 258 256 254 252 251 250 249 249 249 249 250 250 250 250 251 251 252 253 254 256 257 259 260 261 263
299 297 295 293 291 290 288 285 282 280 277 275 272 270 266 262 259 257 255 254 252 251 250 249 247 247 247 247 247 247 247 248 249 249 250 251 252 253 255 256 258 259 260
301 299 298 295 294 292 290 287 285 282 279 276 272 270 267 263 259 256 254 252 251 249 248 247 246 245 245 244 245 245 245 246 246 247 248 248 250 251 252 253 255 257 258
304 302 300 298 296 294 291 289 287 284 281 277 274 270 267 263 258 255 253 252 250 248 247 245 244 243 243 242 242 243 243 243 244 245 246 247 248 248 250 252 254 255 256
306 304 302 301 299 296 294 291 288 285 282 278 276 272 268 264 258 254 251 250 249 247 246 245 243 242 240 239 240 240 241 241 242 244 244 245 246 248 249 251 253 254 255
308 306 305 303 301 299 297 294 290 286 282 278 275 273 270 264 258 254 251 248 246 245 244 243 242 240 239 238 238 239 239 239 240 242 242 243 245 246 248 250 251 252 253
310 309 308 306 304 301 299 296 293 289 285 279 275 271 269 265 259 255 252 248 245 243 241 240 239 238 237 236 236 237 237 238 239 240 241 243 244 245 247 248 249 250 251
314 312 311 309 307 304 300 298 295 291 287 281 277 272 268 264 258 254 250 247 244 240 238 237 236 235 234 233 233 234 234 236 238 239 239 240 242 244 245 246 248 249 249
316 315 314 312 310 307 303 300 297 292 288 283 278 273 268 263 257 252 248 244 242 239 236 234 232 231 231 231 232 232 233 234 235 236 237 239 241 242 243 244 246 247 248
319 318 317 315 313 309 306 303 300 294 290 286 280 274 268 262 257 252 245 240 238 236 234 231 228 228 229 230 231 232 232 232 234 234 235 236 238 240 241 242 244 246 246
321 321 320 319 316 312 309 306 303 298 293 289 282 274 267 261 256 250 243 238 235 234 231 229 226 225 227 228 228 229 229 230 232 233 234 235 237 239 240 241 242 244 245
323 323 322 320 318 315 312 309 306 302 296 291 284 275 267 259 253 248 242 237 233 231 228 226 223 223 224 225 225 226 227 228 230 231 232 234 235 236 238 240 242 244 245
325 325 325 323 321 319 316 312 309 305 300 293 286 276 266 257 250 244 239 237 232 228 225 223 222 221 221 222 223 224 226 227 227 230 231 232 234 236 238 240 242 244 246
326 327 327 326 324 323 320 317 312 308 303 296 288 276 263 253 245 239 235 232 228 224 222 220 219 218 218 219 221 222 224 225 227 230 231 231 233 235 237 240 242 244 246
Height
5647 5649 5651 5654 5657 5659 5662 5665 5667 5670 5673 5675 5677 5679 5681 5683 5685 5688 5690 5691 5693 5695 5697 5699 5701 5702 5703 5705 5706 5707 5708 5708 5709 5710 5711 5711 5711 5711 5711 5711 5711 5710 5708
5644 5645 5647 5649 5651 5653 5655 5657 5659 5661 5663 5665 5667 5669 5671 5673 5675 5677 5678 5680 5682 5683 5685 5686 5688 5689 5690 5692 5693 5694 5695 5696 5697 5698 5699 5699 5700 5700 5700 5700 5699 5699 5697
5639 5640 5641 5643 5644 5646 5648 5649 5651 5652 5653 5655 5656 5658 5660 5661 5663 5665 5666 5668 5669 5670 5672 5673 5674 5676 5677 5678 5679 5681 5682 5683 5684 5685 5686 5687 5687 5688 5688 5688 5688 5687 5686
5635 5635 5636 5636 5637 5638 5639 5640 5641 5642 5643 5644 5645 5647 5648 5648 5649 5651 5653 5654 5655 5656 5658 5659 5660 5662 5663 5664 5666 5667 5668 5670 5671 5673 5674 5675 5675 5675 5676 5676 5676 5676 5675
5629 5629 5629 5629 5629 5629 5629 5630 5631 5631 5632 5632 5633 5634 5634 5635 5635 5636 5638 5639 5640 5642 5643 5644 5645 5647 5648 5650 5652 5653 5655 5657 5658 5659 5661 5662 5663 5664 5664 5664 5664 5664 5663
5622 5621 5620 5620 5619 5619 5618 5618 5618 5618 5618 5619 5619 5620 5620 5620 5621 5621 5622 5623 5625 5626 5627 5629 5630 5632 5634 5636 5637 5639 5641 5643 5645 5646 5648 5649 5650 5651 5652 5652 5653 5652 5652
5613 5612 5610 5609 5607 5606 5605 5604 5604 5603 5603 5603 5604 5604 5604 5604 5604 5605 5605 5606 5608 5609 5611 5613 5615 5617 5619 5621 5623 5625 5627 5629 5631 5633 5635 5636 5637 5639 5640 5640 5640 5640 5640
5603 5601 5599 5596 5594 5592 5590 5589 5587 5587 5586 5586 5586 5586 5586 5586 5586 5587 5587 5589 5591 5592 5594 5596 5598 5601 5603 5605 5608 5610 5613 5615 5617 5619 5621 5622 5624 5625 5626 5627 5628 5628 5628
5591 5588 5584 5581 5579 5576 5574 5572 5570 5569 5568 5567 5567 5567 5568 5568 5567 5568 5568 5570 5572 5574 5576 5579 5581 5584 5587 5589 5592 5595 5598 5600 5602 5605 5607 5609 5610 5612 5613 5615 5615 5616 5616
5577 5573 5569 5565 5561 5558 5555 5553 5551 5549 5548 5548 5547 5547 5547 5547 5547 5548 5549 5550 5553 5555 5558 5560 5563 5566 5569 5572 5575 5578 5582 5585 5587 5590 5593 5595 5597 5599 5600 5602 5603 5604 5604
5564 5558 5553 5548 5544 5540 5536 5533 5531 5529 5528 5527 5527 5526 5526 5526 5527 5527 5528 5530 5532 5535 5538 5541 5544 5547 5551 5554 5558 5562 5565 5569 5572 5575 5578 5581 5583 5585 5587 5589 5590 5591 5592
5548 5542 5536 5530 5525 5520 5516 5513 5510 5507 5505 5504 5504 5504 5503 5503 5504 5505 5506 5508 5511 5515 5519 5522 5525 5529 5532 5536 5541 5545 5549 5553 5557 5560 5564 5567 5569 5572 5574 5576 5577 5579 5580
5531 5524 5517 5510 5504 5499 5494 5490 5487 5484 5482 5481 5480 5480 5480 5480 5481 5482 5484 5486 5489 5493 5498 5502 5506 5510 5514 5519 5523 5528 5532 5537 5541 5546 5550 5553 5556 5559 5561 5563 5565 5567 5568
5513 5505 5497 5490 5484 5478 5472 5467 5464 5461 5458 5457 5456 5456 5457 5458 5458 5459 5462 5465 5468 5472 5476 5481 5487 5492 5497 5502 5507 5511 5516 5522 5526 5531 5535 5538 5542 5545 5548 5550 5553 5555 5557
5494 5485 5477 5469 5463 5457 5451 5446 5441 5439 5435 5435 5434 5434 5435 5437 5437 5439 5441 5444 5448 5452 5456 5461 5467 5473 5479 5485 5490 5495 5501 5506 5511 5516 5520 5524 5528 5532 5535 5538 5541 5543 5545
5475 5467 5459 5451 5444 5438 5432 5427 5422 5418 5415 5413 5412 5413 5413 5415 5417 5419 5421 5425 5428 5432 5437 5443 5449 5455 5462 5468 5474 5479 5485 5491 5496 5501 5506 5510 5514 5518 5522 5526 5529 5531 5534
5458 5450 5442 5434 5427 5420 5414 5409 5405 5401 5397 5395 5394 5393 5394 5395 5397 5400 5403 5406 5410 5414 5420 5426 5432 5439 5445 5452 5458 5464 5470 5476 5481 5486 5492 5497 5501 5506 5510 5513 5516 5519 5522
5442 5433 5425 5417 5410 5403 5397 5392 5387 5384 5382 5379 5377 5376 5377 5377 5379 5382 5385 5389 5394 5398 5404 5410 5416 5423 5429 5436 5443 5450 5456 5461 5467 5473 5479 5484 5489 5493 5497 5501 5504 5508 5510
5427 5418 5410 5402 5394 5388 5382 5377 5372 5369 5366 5365 5363 5362 5361 5362 5364 5366 5369 5373 5378 5383 5389 5395 5401 5408 5415 5422 5429 5436 5443 5449 5455 5461 5466 5471 5476 5481 5485 5489 5493 5496 5499
5414 5404 5396 5388 5381 5374 5369 5363 5359 5355 5353 5351 5349 5348 5348 5348 5350 5353 5356 5359 5364 5369 5375 5381 5387 5394 5402 5409 5417 5424 5430 5437 5443 5448 5454 5459 5465 5469 5474 5478 5482 5485 5488
5402 5393 5384 5376 5368 5362 5356 5351 5347 5343 5341 5339 5337 5337 5336 5337 5338 5341 5344 5348 5352 5357 5362 5368 5375 5383 5390 5398 5405 5412 5419 5425 5431 5437 5443 5449 5454 5458 5463 5467 5471 5474 5478
5391 5382 5374 5365 5357 5351 5345 5341 5336 5333 5330 5328 5327 5326 5326 5327 5329 5331 5334 5338 5342 5346 5352 5358 5365 5373 5380 5388 5395 5401 5408 5414 5421 5427 5433 5438 5443 5448 5452 5456 5460 5464 5467
5381 5372 5364 5355 5348 5342 5336 5332 5328 5325 5322 5320 5319 5318 5318 5319 5321 5323 5326 5329 5333 5338 5343 5349 5356 5364 5371 5378 5385 5392 5398 5405 5411 5417 5423 5428 5433 5438 5442 5446 5450 5454 5457
5372 5363 5355 5347 5340 5334 5329 5324 5320 5318 5315 5313 5312 5311 5311 5312 5314 5316 5319 5322 5326 5331 5336 5342 5348 5356 5363 5369 5376 5383 5390 5396 5402 5407 5413 5418 5423 5428 5432 5436 5440 5444 5447
5364 5355 5347 5340 5333 5328 5323 5318 5315 5312 5310 5308 5306 5305 5305 5306 5307 5309 5312 5316 5320 5324 5329 5335 5342 5349 5355 5362 5368 5375 5381 5387 5393 5399 5404 5409 5414 5419 5423 5427 5431 5434 5437
5356 5349 5341 5334 5328 5322 5318 5314 5310 5307 5305 5303 5301 5300 5300 5301 5302 5304 5307 5310 5314 5319 5324 5329 5335 5342 5349 5355 5361 5368 5374 5379 5385 5390 5395 5400 5405 5409 5413 5417 5421 5424 5427